| time (UTC) | temp F | wind direction | speed MPH | gust MPH | rain 1hr in | rain 24hr in | rain mn in | humidity % | barometer mb |
| 20260508011532 | 49 | 20 | 1.0 | 3.0 | 0.00 | 0.00 | 0.00 | 82 | 1015.0 |
| 20260508010033 | 49 | 35 | 2.0 | 4.0 | 0.00 | 0.00 | 0.00 | 82 | 1014.9 |
| 20260508004541 | 49 | 32 | 2.0 | 4.0 | 0.00 | 0.00 | 0.00 | 82 | 1014.9 |
| 20260508003026 | 49 | 25 | 2.0 | 3.0 | 0.00 | 0.00 | 0.00 | 82 | 1015.0 |
| 20260508001533 | 49 | 13 | 2.0 | 3.0 | 0.00 | 0.00 | 0.00 | 81 | 1015.1 |
| 20260508000022 | 49 | 13 | 1.0 | 2.0 | 0.00 | 0.00 | 0.00 | 81 | 1015.3 |
| 20260507234521 | 49 | 306 | 1.0 | 2.0 | 0.00 | 0.00 | 0.00 | 81 | 1015.5 |
| 20260507233018 | 49 | 253 | 1.0 | 2.0 | 0.00 | 0.00 | 0.00 | 80 | 1015.4 |
| 20260507231515 | 50 | 76 | 1.0 | 3.0 | 0.00 | 0.00 | 0.00 | 79 | 1015.4 |
| 20260507230013 | 50 | 51 | 1.0 | 5.0 | 0.00 | 0.00 | 0.00 | 79 | 1015.4 |
| 20260507224514 | 51 | 89 | 3.0 | 5.0 | 0.00 | 0.00 | 0.00 | 79 | 1015.5 |
| 20260507223012 | 51 | 79 | 2.0 | 4.0 | 0.00 | 0.00 | 0.00 | 78 | 1015.5 |
| 20260507221512 | 51 | 58 | 3.0 | 5.0 | 0.00 | 0.00 | 0.00 | 78 | 1015.5 |
| 20260507220012 | 52 | 69 | 3.0 | 6.0 | 0.00 | 0.00 | 0.00 | 78 | 1015.6 |
| 20260507214510 | 52 | 102 | 3.0 | 6.0 | 0.00 | 0.00 | 0.00 | 78 | 1015.6 |
| 20260507213016 | 52 | 82 | 3.0 | 6.0 | 0.00 | 0.00 | 0.00 | 78 | 1015.6 |
| 20260507211508 | 52 | 58 | 3.0 | 7.0 | 0.00 | 0.00 | 0.00 | 79 | 1015.6 |
| 20260507210007 | 52 | 89 | 3.0 | 8.0 | 0.00 | 0.00 | 0.00 | 79 | 1015.5 |
| 20260507204506 | 53 | 101 | 4.0 | 7.0 | 0.00 | 0.00 | 0.00 | 79 | 1015.5 |
| 20260507203005 | 53 | 77 | 5.0 | 8.0 | 0.00 | 0.00 | 0.00 | 78 | 1015.5 |
| 20260507201504 | 54 | 113 | 5.0 | 8.0 | 0.00 | 0.00 | 0.00 | 77 | 1015.2 |
| 20260507200003 | 54 | 77 | 4.0 | 8.0 | 0.00 | 0.00 | 0.00 | 76 | 1015.1 |
| 20260507194503 | 55 | 107 | 2.0 | 5.0 | 0.00 | 0.00 | 0.00 | 76 | 1015.0 |
| 20260507193001 | 55 | 77 | 2.0 | 5.0 | 0.00 | 0.00 | 0.00 | 76 | 1014.8 |
| 20260507191601 | 55 | 96 | 2.0 | 4.0 | 0.00 | 0.00 | 0.00 | 75 | 1014.8 |
| 20260507184600 | 56 | 178 | 1.0 | 4.0 | 0.00 | 0.00 | 0.00 | 74 | 1014.8 |
| 20260507183059 | 56 | 46 | 1.0 | 3.0 | 0.00 | 0.00 | 0.00 | 74 | 1014.7 |
| 20260507181559 | 56 | 108 | 2.0 | 5.0 | 0.00 | 0.00 | 0.00 | 74 | 1014.8 |
| 20260507180057 | 56 | 108 | 2.0 | 4.0 | 0.00 | 0.00 | 0.00 | 73 | 1014.8 |
| 20260507174602 | 57 | 74 | 2.0 | 4.0 | 0.00 | 0.00 | 0.00 | 73 | 1014.9 |
| 20260507173130 | 57 | 107 | 3.0 | 5.0 | 0.00 | 0.00 | 0.00 | 72 | 1014.8 |
| 20260507171557 | 57 | 223 | 1.0 | 6.0 | 0.00 | 0.00 | 0.00 | 72 | 1014.9 |
| 20260507170056 | 58 | 79 | 3.0 | 7.0 | 0.00 | 0.00 | 0.00 | 72 | 1014.8 |
| 20260507164655 | 59 | 98 | 3.0 | 7.0 | 0.00 | 0.00 | 0.00 | 71 | 1014.9 |
| 20260507163050 | 60 | 119 | 4.0 | 7.0 | 0.00 | 0.00 | 0.00 | 70 | 1014.8 |
| 20260507161552 | 60 | 103 | 4.0 | 9.0 | 0.00 | 0.00 | 0.00 | 71 | 1014.9 |
| 20260507160058 | 60 | 108 | 2.0 | 8.0 | 0.00 | 0.00 | 0.00 | 69 | 1015.0 |
| 20260507154549 | 61 | 101 | 4.0 | 8.0 | 0.00 | 0.00 | 0.00 | 68 | 1014.9 |
| 20260507153053 | 62 | 86 | 4.0 | 10.0 | 0.00 | 0.00 | 0.00 | 65 | 1014.9 |
| 20260507151547 | 63 | 120 | 5.0 | 8.0 | 0.00 | 0.00 | 0.00 | 64 | 1015.0 |
| 20260507150048 | 63 | 107 | 3.0 | 7.0 | 0.00 | 0.00 | 0.00 | 61 | 1015.1 |
| 20260507144550 | 63 | 152 | 2.0 | 6.0 | 0.00 | 0.00 | 0.00 | 63 | 1015.1 |
| 20260507143056 | 62 | 127 | 4.0 | 8.0 | 0.00 | 0.00 | 0.00 | 61 | 1015.3 |
| 20260507141553 | 61 | 113 | 3.0 | 6.0 | 0.00 | 0.00 | 0.00 | 64 | 1015.4 |
| 20260507140043 | 62 | 135 | 3.0 | 8.0 | 0.00 | 0.00 | 0.00 | 61 | 1015.4 |
| 20260507134544 | 63 | 132 | 4.0 | 8.0 | 0.00 | 0.00 | 0.00 | 60 | 1015.3 |
| 20260507133106 | 63 | 144 | 4.0 | 9.0 | 0.00 | 0.00 | 0.00 | 63 | 1015.4 |
| 20260507131543 | 62 | 115 | 3.0 | 9.0 | 0.00 | 0.00 | 0.00 | 63 | 1015.4 |
| 20260507130043 | 61 | 139 | 5.0 | 9.0 | 0.00 | 0.00 | 0.00 | 63 | 1015.5 |
| 20260507124535 | 61 | 158 | 4.0 | 8.0 | 0.00 | 0.00 | 0.00 | 62 | 1015.5 |
| 20260507123040 | 62 | 84 | 3.0 | 8.0 | 0.00 | 0.00 | 0.00 | 61 | 1015.5 |
| 20260507121534 | 62 | 151 | 4.0 | 10.0 | 0.00 | 0.00 | 0.00 | 61 | 1015.6 |
| 20260507120035 | 63 | 152 | 6.0 | 10.0 | 0.00 | 0.00 | 0.00 | 61 | 1015.7 |
| 20260507114532 | 62 | 155 | 5.0 | 10.0 | 0.00 | 0.00 | 0.00 | 62 | 1015.7 |
| 20260507113033 | 62 | 151 | 6.0 | 11.0 | 0.00 | 0.00 | 0.00 | 63 | 1015.7 |
| 20260507111525 | 61 | 141 | 5.0 | 11.0 | 0.00 | 0.00 | 0.00 | 66 | 1015.7 |
| 20260507110031 | 60 | 136 | 6.0 | 11.0 | 0.00 | 0.00 | 0.00 | 66 | 1015.8 |
| 20260507104523 | 61 | 138 | 6.0 | 11.0 | 0.00 | 0.00 | 0.00 | 68 | 1015.8 |
| 20260507103019 | 59 | 149 | 5.0 | 11.0 | 0.00 | 0.00 | 0.00 | 71 | 1015.8 |
| 20260507101522 | 59 | 160 | 5.0 | 11.0 | 0.00 | 0.00 | 0.00 | 70 | 1015.7 |
| 20260507100020 | 58 | 151 | 5.0 | 10.0 | 0.00 | 0.00 | 0.00 | 71 | 1015.6 |
| 20260507094511 | 59 | 166 | 6.0 | 12.0 | 0.00 | 0.00 | 0.00 | 71 | 1015.7 |
| 20260507093006 | 58 | 164 | 7.0 | 10.0 | 0.00 | 0.00 | 0.00 | 72 | 1015.5 |
| 20260507091503 | 57 | 165 | 5.0 | 11.0 | 0.00 | 0.00 | 0.00 | 72 | 1015.6 |
| 20260507090106 | 57 | 154 | 7.0 | 11.0 | 0.00 | 0.00 | 0.00 | 72 | 1015.5 |
| 20260507084600 | 56 | 170 | 5.0 | 10.0 | 0.00 | 0.00 | 0.00 | 73 | 1015.5 |
| 20260507083053 | 55 | 163 | 6.0 | 12.0 | 0.00 | 0.00 | 0.00 | 73 | 1015.5 |
| 20260507081550 | 55 | 144 | 5.0 | 9.0 | 0.00 | 0.00 | 0.00 | 74 | 1015.6 |
| 20260507080046 | 54 | 148 | 5.0 | 9.0 | 0.00 | 0.00 | 0.00 | 75 | 1015.6 |
| 20260507074548 | 54 | 136 | 5.0 | 8.0 | 0.00 | 0.00 | 0.00 | 76 | 1015.6 |
| 20260507073045 | 53 | 157 | 5.0 | 9.0 | 0.00 | 0.00 | 0.00 | 76 | 1015.5 |
| 20260507071538 | 53 | 152 | 5.0 | 8.0 | 0.00 | 0.00 | 0.00 | 77 | 1015.5 |
| 20260507070042 | 52 | 146 | 5.0 | 10.0 | 0.00 | 0.00 | 0.00 | 77 | 1015.3 |
| 20260507064529 | 51 | 146 | 4.0 | 8.0 | 0.00 | 0.00 | 0.00 | 78 | 1015.2 |
| 20260507063024 | 51 | 159 | 4.0 | 8.0 | 0.00 | 0.00 | 0.00 | 79 | 1015.3 |
| 20260507061523 | 50 | 135 | 4.0 | 8.0 | 0.00 | 0.00 | 0.00 | 80 | 1015.2 |
| 20260507060020 | 49 | 150 | 3.0 | 6.0 | 0.00 | 0.00 | 0.00 | 81 | 1015.1 |
| 20260507054514 | 49 | 152 | 2.0 | 4.0 | 0.00 | 0.00 | 0.00 | 81 | 1015.0 |
| 20260507053012 | 49 | 143 | 2.0 | 5.0 | 0.00 | 0.00 | 0.00 | 81 | 1015.0 |
| 20260507051513 | 49 | 159 | 2.0 | 4.0 | 0.00 | 0.00 | 0.00 | 81 | 1014.9 |
| 20260507050019 | 49 | 152 | 2.0 | 4.0 | 0.00 | 0.00 | 0.00 | 81 | 1015.0 |
| 20260507044507 | 49 | 162 | 2.0 | 4.0 | 0.00 | 0.00 | 0.00 | 81 | 1015.0 |
| 20260507043006 | 49 | 89 | 1.0 | 3.0 | 0.00 | 0.00 | 0.00 | 81 | 1014.9 |
| 20260507041505 | 49 | 147 | 1.0 | 3.0 | 0.00 | 0.00 | 0.00 | 81 | 1014.9 |
| 20260507040005 | 49 | 108 | 1.0 | 3.0 | 0.00 | 0.00 | 0.00 | 81 | 1015.0 |
| 20260507034502 | 49 | 83 | 2.0 | 3.0 | 0.00 | 0.00 | 0.00 | 81 | 1014.9 |
| 20260507033002 | 48 | 117 | 1.0 | 3.0 | 0.00 | 0.00 | 0.00 | 81 | 1014.9 |
| 20260507031604 | 48 | 89 | 1.0 | 3.0 | 0.00 | 0.00 | 0.00 | 80 | 1015.1 |
| 20260507030110 | 48 | 117 | 1.0 | 3.0 | 0.00 | 0.00 | 0.00 | 80 | 1015.1 |
| 20260507024613 | 48 | 145 | 1.0 | 3.0 | 0.00 | 0.00 | 0.00 | 79 | 1015.1 |
| 20260507023056 | 47 | 140 | 1.0 | 3.0 | 0.00 | 0.00 | 0.00 | 79 | 1015.0 |
| 20260507021558 | 47 | 124 | 1.0 | 2.0 | 0.00 | 0.00 | 0.00 | 78 | 1015.0 |
| 20260507020100 | 47 | 117 | 1.0 | 3.0 | 0.00 | 0.00 | 0.00 | 78 | 1015.1 |
| 20260507014558 | 47 | 147 | 1.0 | 3.0 | 0.00 | 0.00 | 0.00 | 77 | 1015.3 |
| 20260507013059 | 47 | 161 | 1.0 | 3.0 | 0.00 | 0.00 | 0.00 | 76 | 1015.4 |